Погода в Яссках

Россия / Псковская область     57°33′06″N   30°07′09″E
темп.,
°C
ветер,
м/с
пор.,
м/с
влажн.,
%
обл.,
%
осадки,
мм/ч
давл.,
гПа
погр.,
м
11 мая, вт
вт1100:00+9ю31191100 0.0 1025202
03:00+8ю379289 0.0 1026125
06:00+8ю399136 0.0 1026187
09:00+14ю486452 0.0 1026442
12:00+18ю46508 0.0 1026982
15:00+20ююв45458 0.0 10251268
18:00+20юв35555 0.0 1024625
21:00+13юв33740 0.0 102431
12 мая, ср
ср1200:00+10ююв38730 0.0 1024141
03:00+8ююв36845 0.0 1025101
06:00+9ююв26880 0.0 1025125
09:00+16юв46730 0.0 1024433
12:00+20юв466313 0.0 10231258
15:00+20юв36640 0.0 1022987
18:00+21юв24550 0.0 1020866
21:00+15с227014 0.0 101814
13 мая, чт
чт1300:00+14в31088100 0.1 1017357
03:00+14в41292100 0.3 1015535
06:00+12юв5109047 0.1 1016672
09:00+12юв58785 0.1 1017625
12:00+17вюв61058100 0.0 10151800
15:00+15юв61070100 0.5 10141111
18:00+14вюв61080100 0.3 1013570
21:00+12вюв369096 0.4 1012216
14 мая, пт
пт1400:00+8ююв349314 0.0 101280
03:00+7ююв25956 0.0 1013105
06:00+8юв3109391 0.0 1013285
09:00+10вюв4118592 0.1 1012405
12:00+16юв596498 0.0 10121210
15:00+15юв387387 0.1 1011544
18:00+17юв586794 0.1 1009957
21:00+11в25935 0.1 100981
15 мая, сб
сб1500:00+12в279782 0.8 1007165
03:00+10юв119825 1.8 100615
06:00+11ююз239870 0.0 100670
09:00+15ююз2387100 0.0 1006408
12:00+18юз236894 0.0 10071036
15:00+18зюз237053 0.2 1005654
18:00+18зюз237724 1.9 1005541
21:00+14з3488100 3.4 100564